Regional Weather Roundup
Issued by NWS

Home | Current Version | Previous Version | Graphics & Text | Print | Product List | Glossary On
Versions: 1 2 3 4 5 6 7 8 9 10 11 12 13 14 15 16 17 18 19 20 21 22 23 24 25 26 27 28 29 30 31 32 33 34 35 36 37 38 39 40 41 42 43 44 45 46 47 48 49 50
000
ASUS43 KLOT 211308
RWRIL

ILLINOIS REGIONAL WEATHER ROUNDUP
NATIONAL WEATHER SERVICE CHICAGO/ROMEOVILLE IL
800 AM CDT SAT APR 21 2018

NOTE: "FAIR" INDICATES FEW OR NO CLOUDS BELOW 12,000 FEET WITH NO
SIGNIFICANT WEATHER AND/OR OBSTRUCTIONS TO VISIBILITY.

* THESE STATIONS ARE NOT UNDER NWS QUALITY CONTROL. THEY ALSO MAY NOT
  REPORT WEATHER SUCH AS PRECIPITATION OR FOG.

ILZ001-002-007-009-015-016-024-211400-
NORTHWEST ILLINOIS

CITY           SKY/WX    TMP DP  RH WIND       PRES   REMARKS
MOLINE         FAIR      46  28  49 E6        30.42R
STERLING*      FAIR      43  31  62 E5        30.45R
SAVANNA*       CLOUDY    44  27  52 CALM      30.45R
$$

ILZ003-004-008-010-011-017-018-211400-
NORTH CENTRAL ILLINOIS

CITY           SKY/WX    TMP DP  RH WIND       PRES   REMARKS
ROCKFORD       CLOUDY    42  24  49 E3        30.46R
FREEPORT*      CLOUDY    39  30  68 CALM      30.46S
ROCHELLE*      CLOUDY    41  28  59 SE3       30.45F
DE KALB*       CLOUDY    42  27  56 CALM      30.45S
PERU*          FAIR      45  31  58 CALM      30.45R
$$

ILZ005-006-012>014-019>023-211400-
NORTHEAST ILLINOIS

CITY           SKY/WX    TMP DP  RH WIND       PRES   REMARKS
CHICAGO-OHARE  CLOUDY    45  20  36 E3        30.44R
CHICAGO-MIDWAY CLOUDY    46  20  35 E5        30.45R
AURORA         PTSUNNY   42  33  70 CALM      30.45R
LANSING*       CLOUDY    42  26  51 CALM      30.44S
JOLIET*        CLOUDY    47  25  42 CALM      30.45R
WAUKEGAN       PTSUNNY   38  29  70 NE3       30.45R
DUPAGE AIRPORT PTSUNNY   44  23  43 CALM      30.45R
KANKAKEE*      PTSUNNY   43  26  51 E3        30.45R
WHEELING       CLOUDY    43  27  53 CALM      30.47R
MORRIS*        CLOUDY    41  31  68 N3        30.44S
ROMEOVILLE*    CLOUDY    45  27  49 CALM      30.45R
NORTHERLY ISL    N/A     40  32  73 NW1         N/A
$$

LMZ740>746-211400-
SOUTHERN LAKE MICHIGAN

STATION/POSITION SKY/WX   TEMP    WIND        PRES    VSBY  WAVE
                          AIR SEA DIR/SP/G                  HT/PER
                          (F)     (DEG/KT/KT) (MB)    (MI)  (FT/S)
HARRISON CRIB              40      60/  5/  5   N/A
BURNHAM HARBOR             41     360/  3/  5   N/A
CALUMET HARBOR             41      30/  3/  4 1030.2F
BURNS HARBOR               44      90/  6/  7 1031.2S
MICHIGAN CITY              39     220/  1/  2   N/A
$$

ILZ025>027-034>036-040-047-049-050-058-095>099-211400-
WEST-CENTRAL ILLINOIS

CITY           SKY/WX    TMP DP  RH WIND       PRES   REMARKS
QUINCY         CLOUDY    47  27  45 E8        30.36R
GALESBURG*     FAIR      49  28  43 E7        30.42R
MACOMB*        PTSUNNY   44  31  60 E6        30.43R
JACKSONVILLE*  CLOUDY    48  30  50 E9        30.38R
PITTSFIELD*    CLOUDY    48  32  52 E5        30.38R
$$

ILZ028>032-037-038-041>044-048-051>054-059>061-211400-
CENTRAL ILLINOIS

CITY           SKY/WX    TMP DP  RH WIND       PRES   REMARKS
PONTIAC        FAIR      42  28  56 E7        30.45R
BLOOMINGTON    FAIR      44  31  60 E7        30.42R
DECATUR        FAIR      45  32  60 E8        30.40F
PEORIA         FAIR      47  27  45 E7        30.43R
LACON*         FAIR      43  26  50 CALM      30.43S
LINCOLN*       FAIR      47  33  57 E7        30.41S
SPRINGFIELD    FAIR      50  30  46 E9        30.39R
TAYLORVILLE    FAIR      47  28  48 SE13      30.38F
$$

ILZ033-039-045-046-055>057-062-063-211400-
EAST-CENTRAL ILLINOIS

CITY           SKY/WX    TMP DP  RH WIND       PRES   REMARKS
CHAMPAIGN      FAIR      45  30  55 E8        30.41F
DANVILLE*      FAIR      45  31  57 SE7       30.39F
RANTOUL*       FAIR      46  33  59 CALM      30.42R
MATTOON        FAIR      47  29  49 E7        30.40S
PARIS*         FAIR      44  33  64 E6        30.43F
$$

ILZ079-100>102-211400-
SOUTHWEST ILLINOIS

CITY           SKY/WX    TMP DP  RH WIND       PRES   REMARKS
ALTON          PTSUNNY   46  32  57 E14       30.36R
BELLEVILLE     CLOUDY    48  31  50 E7        30.34S
CAHOKIA*       MOSUNNY   50  31  48 E10       30.34R
SPARTA*        MOSUNNY   48  35  61 E9        30.34F
$$

ILZ064>066-069>071-074>076-080>082-084>086-088>090-092>094-211400-
SOUTH-CENTRAL ILLINOIS

CITY           SKY/WX    TMP DP  RH WIND       PRES   REMARKS
CARBONDALE     FAIR      48  33  56 E9        30.34S
CAIRO*         FAIR      50  34  53 NE7       30.32S
EFFINGHAM*     FAIR      49  30  47 NE7       30.41S
MARION         MOSUNNY   48  32  53 E9        30.35S
MT. VERNON     FAIR      48  33  56 E9        30.37S
CENTRALIA*     CLOUDY    49  32  52 E5        30.36S
SALEM*         FAIR      49  30  47 E5        30.38S
METROPOLIS*    FAIR      51  32  47 E3        30.34R
$$

ILZ067-068-072-073-078-083-087-091-211400-
SOUTHEAST ILLINOIS

CITY           SKY/WX    TMP DP  RH WIND       PRES   REMARKS
LAWRENCEVILLE  FAIR      48  29  47 NE10      30.41R
FLORA*         FAIR      47  32  56 NE6       30.39F
FAIRFIELD*     FAIR      49  33  54 NE6       30.37S
HARRISBURG*    FAIR      49  33  53 NE7       30.37R
ROBINSON*      FAIR      47  33  59 E9        30.42S
CARMI*         FAIR      48  35  60 NE9       30.37S
$$

ABBREVIATIONS USED IN REMARKS
   TC - TEMPERATURE IN CELSIUS
  WCI - WIND CHILL INDEX
   HX - HEAT INDEX
  VSB - VISIBILITY
$$




USA.gov is the U.S. government's official web portal to all federal, state and local government web resources and services.